Notices

What's New in latest Release from April 7th, 2021:

- Updated Glossary, including Speed of Maximum Gust, and Total Hourly Precipitation

- Updated national and regional climate services offices contacts and prices information

- Addition of station inventory lists for 1981-2010, 1971-2000, and 1961-1990 Normals.

If you haven't already, please take our survey and provide feedback about our website: https://eccc.sondage-survey.ca/f/LanguageSelection.aspx?s=442ca660-fcf1-47c0-95a9-59707d6fd709

Hourly Data Report for May 19, 2020

TRENTON A
ONTARIO
Current Station Operator: DND

44°07'00.000" N
77°32'00.000" W
86.30 m
6158875
71621
YTR

Download Data

Hourly Data (May 2020)
Hourly Data Report for May 19, 2020
TIME
LST
Temp Definition
°C
Dew Point Definition
°C
Rel Hum Definition
%
Precip. Amount Definition
mm

Wind Dir Definition
10's deg

Wind Spd Definition
km/h
Visibility Definition
km
Stn Press Definition
kPa
Hmdx Definition


Wind Chill Definition


Weather Definition


00:00 13.5 -4.3 28   7 17 24.1 101.21     Mainly Clear
01:00 13.3 -4.6 27   6 17 24.1 101.20     Mainly Clear
02:00 12.7 -4.8 28   6 18 24.1 101.21     Clear
03:00 11.9 -4.7 30   6 18 24.1 101.24     Clear
04:00 11.2 -4.7 31   6 17 24.1 101.29     Clear
05:00 10.3 -3.6 36   7 18 24.1 101.34     Mainly Clear
06:00 10.2 -2.9 39   6 17 24.1 101.43     Cloudy
07:00 11.6 -1.4 40   6 22 24.1 101.47     Cloudy
08:00 13.6 -0.8 37   6 22 24.1 101.51     Mostly Cloudy
09:00 15.3 1.2 38   8 9 24.1 101.53     Mainly Clear
10:00 15.4 1.5 39   10 17 24.1 101.52     Cloudy
11:00 16.7 1.4 36   8 18 24.1 101.54     Cloudy
12:00 17.6 2.7 37   6 22 24.1 101.52     Cloudy
13:00 18.6 3.1 36   9 17 24.1 101.52     Cloudy
14:00 19.7 3.9 35   9 15 24.1 101.48     Cloudy
15:00 19.8 3.9 35   7 18 24.1 101.44     Cloudy
16:00 19.4 4.5 37   10 13 24.1 101.41     Cloudy
17:00 19.1 4.6 38   11 11 24.1 101.39     Cloudy
18:00 19.1 4.9 39   7 9 24.1 101.39     Cloudy
19:00 18.1 4.7 41   6 9 24.1 101.44     Cloudy
20:00 16.7 4.2 43   7 5 24.1 101.49     Mostly Cloudy
21:00 16.8 3.2 40   7 11 24.1 101.53     Mostly Cloudy
22:00 15.6 3.3 44   6 15 24.1 101.53     Mainly Clear
23:00 14.5 3.9 49   9 4 24.1 101.59     Mainly Clear

Notes on Data Quality.

Legend

  • E = Estimated
  • M = Missing
  • NA = Not Available*
  • [empty] = Indicates an unobserved value
Date modified: